Location: Adams
(39.9979°N, 79.0290°W)
Time: 08:48:51
(UTC+00:00)

N. Korean satellite - Visible Passes

Search period start: 18 October 2021 00:00
Search period end: 28 October 2021 00:00
Orbit: 450 x 495 km, 97.3° (Epoch: 17 October)

Date Brightness Start Highest point End Pass type
(mag) Time Alt. Az. Time Alt. Az. Time Alt. Az.
18 Oct 8.6 10:00:54 10° NNE 10:04:12 31° E 10:07:28 10° SSE visible
19 Oct 9.9 09:33:58 10° ENE 09:35:59 14° E 09:38:00 10° SE visible
20 Oct 6.5 10:37:39 10° N 10:41:20 80° WNW 10:44:57 10° SSW visible
21 Oct 8.0 10:09:46 10° NNE 10:13:15 41° E 10:16:41 10° S visible
22 Oct 9.6 09:42:27 10° NE 09:45:03 18° E 09:47:36 10° SE visible
23 Oct 6.6 10:46:40 10° N 10:50:17 60° WNW 10:53:51 10° SSW visible
23 Oct 10.4 22:55:36 10° WSW 22:56:47 11° W 22:58:00 10° WNW visible
24 Oct 7.4 10:18:36 10° NNE 10:22:12 55° E 10:25:45 10° S visible
25 Oct 9.1 09:51:02 10° NE 09:54:00 23° E 09:56:56 10° SSE visible
26 Oct 10.2 09:25:01 10° E 09:25:40 10° E 09:26:20 10° E visible
26 Oct 6.9 10:55:38 10° N 10:59:07 44° WNW 11:02:34 10° SSW visible
27 Oct 6.8 10:27:25 10° NNE 10:31:03 74° E 10:34:38 10° S visible
